Location: Brompton
(51.4000°N, 0.5333°E)
Time: 05:39:17
(UTC+00:00)

USA 215 - Pass Details

Date: 01 October 2021
Orbit: 1093 x 1114 km, 123.0° (Epoch: 14 October)

Event Time Altitude Azimuth Distance (km) Brightness Sun altitude
Exits shadow 20:04:34 43° 138° (SE) 1,501 3.5 -23.5°
Maximum altitude 20:06:54 75° 213° (SSW) 1,138 3.2 -23.8°
Drops below altitude 10° 20:13:28 10° 299° (WNW) 2,969 6.6 -24.7°
Sets 20:15:58 0° 301° (WNW) 3,932 7.6 -25.1°
